Location: Dreilärchen
(47.9312°N, 8.6113°E)
Time: 23:06:02
(UTC+00:00)

Cosmos 2184 Rocket - Pass Details

Date: 26 May 2022
Orbit: 958 x 1003 km, 82.9° (Epoch: 02 July)

Event Time Altitude Azimuth Distance (km) Brightness Sun altitude
Rises 01:34:41 0° 348° (NNW) 3,702 7.8 -14.9°
Reaches altitude 10° 01:37:14 10° 346° (NNW) 2,743 7.0 -14.7°
Maximum altitude 01:43:27 67° 266° (W) 1,049 4.0 -14.1°
Enters shadow 01:48:46 14° 186° (S) 2,404 5.5 -13.6°
